Regional Weather Roundup
Issued by NWS

Home | Current Version | Previous Version | Text Only | Print | Product List | Glossary On
Versions: 1 2 3 4 5 6 7 8 9 10 11 12 13 14 15 16 17 18 19 20 21 22 23 24 25 26 27 28 29 30 31 32 33 34 35 36 37 38 39 40 41 42 43 44 45 46 47 48 49 50
000
ASUS44 KLUB 220701
RWRTX
WEST TEXAS WEATHER ROUNDUP
NATIONAL WEATHER SERVICE LUBBOCK TX
200 AM CDT TUE JUL 22 2014

NOTE: "FAIR" INDICATES FEW OR NO CLOUDS BELOW 12,000 FEET WITH NO
SIGNIFICANT WEATHER AND/OR OBSTRUCTIONS TO VISIBILITY.

TXZ004-006>008-010-012-014-016-OKZ002-220800-
TEXAS PANHANDLE/OKLAHOMA PANHANDLE

CITY           SKY/WX    TMP DP  RH WIND       PRES   REMARKS
AMARILLO       CLOUDY    79  64  60 CALM      30.19S
BORGER         CLOUDY    81  63  54 SE7       30.13F
CANADIAN       CLOUDY    83  69  62 W3        30.11S
DALHART        MOCLDY    71  64  78 E7        30.22R
DUMAS          CLOUDY    71  67  85 CALM      30.18R
GUYMON         CLOUDY    71  66  84 SW3       30.11F
HEREFORD       CLOUDY    76  65  69 NW17G24   30.24R
PERRYTON       CLOUDY    74  66  75 SE7       30.11F
$$

TXZ026-029-035-045-048-220800-
SOUTHERN PANHANDLE/SOUTH PLAINS/ROLLING PLAINS

CITY           SKY/WX    TMP DP  RH WIND       PRES   REMARKS
CHILDRESS      CLOUDY    80  68  66 SE8       30.07S
SEMINOLE       PTCLDY    81  62  51 SE8       30.12S
LUBBOCK        MOCLDY    79  63  57 SE12      30.12F
SNYDER         CLEAR     83  67  58 SE13      30.08F
$$

TXZ052-054-060>062-072-078-127-140-154-169-220800-
PERMIAN BASIN/CONCHO VALLEY/BIG COUNTRY/EDWARDS PLATEAU

CITY           SKY/WX    TMP DP  RH WIND       PRES   REMARKS
ABILENE        PTCLDY    79  69  71 SE8       30.07F
BIG SPRING       N/A     84  65  51 SE8       30.10F
BRADY          CLEAR     79  70  73 E7        30.07R
BROWNWOOD      CLOUDY    77  72  83 CALM      30.05F
JUNCTION       CLEAR     79  70  74 E6        30.06R
MIDLAND        PTCLDY    84  68  58 S15       30.09S
ODESSA         PTCLDY    83  65  54 S14       30.10S
SAN ANGELO     CLEAR     80  70  71 CALM      30.06R
SONORA         CLEAR     81  72  74 CALM      30.11S
SWEETWATER     CLEAR     82  66  60 SE9       30.11F
WINK           PTCLDY    84  67  56 S13       30.06R
$$

TXZ055-058-074-075-080-082-220800-
FAR WEST/SOUTHWEST MOUNTAINS/TRANS PECOS

CITY           SKY/WX    TMP DP  RH WIND       PRES   REMARKS
ALPINE         CLEAR     75  64  69 SW3       30.24R
DRYDEN           N/A     87  71  58 E10       30.03R
EL PASO        PTCLDY    81  57  43 SW7       30.09S
FORT STOCKTON  CLEAR     79  69  71 SE9       30.10R
GUADALUPE PASS MOCLDY    76  59  55 NE21      30.26R
MARFA          CLEAR     68  63  83 N5        30.24S
PRESIDIO       FAIR      87  63  44 NE6       30.03S
$$

TXZ014-016-019-021>030-083-220800
TEXAS TECH WEST TEXAS MESONET/TEXAS PANHANDLE/NORTHERN SOUTH PLAINS

CITY           SKY/WX    TMP DP  RH WIND       PRES   REMARKS
$$

TXZ033>036-039>041-045>048-220800
TEXAS TECH WEST TEXAS MESONET/SOUTH PLAINS

CITY           SKY/WX    TMP DP  RH WIND       PRES   REMARKS
$$

TXZ031-032-036>038-042>044-220800-
TEXAS TECH WEST TEXAS MESONET/ROLLING PLAINS

CITY           SKY/WX    TMP DP  RH WIND       PRES   REMARKS
$$

TXZ052-054-060>062-072-078-127-140-154-169-220800-
TEXAS TECH WEST TEXAS MESONET/PERMIAN BASIN/
CONCHO VALLEY/BIG COUNTRY/EDWARDS PLATEAU

CITY           SKY/WX    TMP DP  RH WIND       PRES   REMARKS
$$

TXZ055-058-074-075-080-082-220800-
TEXAS TECH WEST TEXAS MESONET/FAR WEST/SOUTHWEST MOUNTAINS/TRANS PECOS

CITY           SKY/WX    TMP DP  RH WIND       PRES   REMARKS
$$


USA.gov is the U.S. government's official web portal to all federal, state and local government web resources and services.